Regional Weather Roundup
Issued by NWS Northern Indiana

Home | Current Version | Previous Version | Graphics & Text | Print | Product List | Glossary On
Versions: 1 2 3 4 5 6 7 8 9 10 11 12 13 14 15 16 17 18 19 20 21 22 23 24 25 26 27 28 29 30 31 32 33 34 35 36 37 38 39 40 41 42 43 44 45 46 47 48 49 50
662
ASUS43 KIWX 290710
RWRIWX

KIWX WEATHER ROUNDUP
NATIONAL WEATHER SERVICE NORTHERN INDIANA
300 AM EDT THU JUN 29 2017

NOTE: "FAIR" INDICATES FEW OR NO CLOUDS BELOW 12,000 FEET WITH NO
SIGNIFICANT WEATHER AND/OR OBSTRUCTIONS TO VISIBILITY.

* THESE STATIONS ARE NOT UNDER NWS QUALITY CONTROL. THEY ALSO MAY NOT
  REPORT WEATHER SUCH AS PRECIPITATION OR FOG.

INZ001>027-290800-
NORTHERN INDIANA

CITY           SKY/WX    TMP DP  RH WIND       PRES   REMARKS
GARY*          CLOUDY    69  63  80 E5        29.83S
VALPARAISO     CLOUDY    75  64  68 SW13      29.86R
MICHIGAN CITY* CLOUDY    64  64 100 CALM      29.87F
LAPORTE*       CLOUDY    71  61  71 CALM      29.87S
KNOX*          CLOUDY    72  50  46 S16G24    29.83F
SOUTH BEND     CLOUDY    66  63  90 NE9       29.88R
GOSHEN         LGT RAIN  72  58  61 SW14G23   29.88F
MONTICELLO*    CLOUDY    72  59  63 S16G23    29.87F
LOGANSPORT*    MOCLDY    70  59  68 S16G22    29.90F
ROCHESTER*     CLOUDY    73  59  60 S12G20    29.89F
WARSAW*        CLOUDY    72  55  56 SW9       29.89S
AUBURN*        CLOUDY    72  52  49 SW7       29.91F
FORT WAYNE     CLOUDY    70  54  56 SW13      29.92F
HUNTINGTON*    CLOUDY    70  55  57 SW13      29.92S
PERU/GRISSOM   CLOUDY    71  59  64 SW18G24   29.89S
MARION*        CLOUDY    68  55  64 SW14G20   29.94F

$$
INZ028>050-290800-
CENTRAL INDIANA

CITY           SKY/WX    TMP DP  RH WIND       PRES   REMARKS
LAFAYETTE      CLOUDY    72  61  68 SW8G17    29.90S
KOKOMO*        CLOUDY    72  58  61 S15       29.93F
MUNCIE*        PTCLDY    72  54  53 S12       29.95F
INDIANAPOLIS   CLOUDY    69  57  65 S12       29.95F

$$
MIZ043>046-050>051-056>058-064>065-071>073-077>080-290800-
SOUTHWEST LOWER MICHIGAN

CITY           SKY/WX    TMP DP  RH WIND       PRES   REMARKS
BATTLE CREEK   CLOUDY    65  63  93 VRB5      29.91F
BENTON HARBOR  TSTM      65  62  90 E8        29.84F FOG
COLDWATER*     LGT RAIN  67  59  74 CALM      29.91R
HILLSDALE*     CLOUDY    68  54  60 S7        29.91R
HOLLAND        LGT RAIN  64  62  93 S12       29.81F
GRAND RAPIDS   HVY RAIN  64  64 100 S14G22    29.83F FOG
KALAMAZOO      RAIN      65  61  87 N20G28    29.92S
STURGIS*       LGT RAIN  67  59  76 MISG      29.89F
THREE RIVERS*  CLOUDY    65  62  88 CALM      29.90F

$$
OHZ001>008-015>018-024>025-290800-
NORTHWEST OHIO

CITY           SKY/WX    TMP DP  RH WIND       PRES   REMARKS
WAUSEON*       CLOUDY    70  54  56 S14       29.91F
DEFIANCE       CLOUDY    69  54  58 S12       29.92F
FINDLAY        MOCLDY    69  53  56 S14       29.94F
TOLEDO EXPRESS CLOUDY    69  55  60 S8        29.91F
TOLEDO METCALF MOCLDY    69  55  60 S9        29.93F
LIMA           PTCLDY    67  55  65 S12       29.96F

$$
AND FOR LAKE MICHIGAN COASTAL AND OPEN LAKE BUOY OBSERVATIONS

STATION/POSITION TEMP    WIND        PRES    VSBY  WAVE
                 AIR SEA DIR/SP/G                  HT/PER
                 (F)     (DEG/KT/KT) (MB)    (MI)  (FT/S)
CALUMET HARBOR    68     120/ 10/ 14 1008.7F
MICHIGAN CITY     66      50/ 11/ 12   N/A
BURNS HARBOR      67      60/ 13/ 15 1011.2S
SOUTH LAKE BUOY   62 60  160/ 19/ 23 1008.1R         3/ 5
4 MI NW BRIDGMAN  66 67  130/ 10/ 12 1010.6          2/ 4
MICHIGAN CITY     66 65   90/ 12/ 14   N/A           1/ 2

$$
&&




USA.gov is the U.S. government's official web portal to all federal, state and local government web resources and services.